TimeCST,TemperatureF,Dew PointF,Humidity,Sea Level PressureIn,VisibilityMPH,Wind Direction,Wind SpeedMPH,Gust SpeedMPH,PrecipitationIn,Events,Conditions,WindDirDegrees,DateUTC
12:53 AM,27.0,14.0,58,30.21,10.0,Calm,Calm,-,N/A,,Clear,0,2014-01-19 06:53:00
1:53 AM,26.1,14.0,60,30.21,10.0,SSW,6.9,-,N/A,,Clear,200,2014-01-19 07:53:00
2:53 AM,21.9,12.9,68,30.22,10.0,West,10.4,-,N/A,,Clear,260,2014-01-19 08:53:00
3:53 AM,25.0,14.0,63,30.22,10.0,WSW,9.2,-,N/A,,Clear,240,2014-01-19 09:53:00
4:53 AM,23.0,14.0,68,30.21,10.0,WSW,9.2,-,N/A,,Clear,250,2014-01-19 10:53:00
5:53 AM,23.0,14.0,68,30.19,10.0,Variable,3.5,-,N/A,,Clear,0,2014-01-19 11:53:00
6:53 AM,21.9,12.9,68,30.19,10.0,SW,3.5,-,N/A,,Clear,230,2014-01-19 12:53:00
7:53 AM,21.9,12.9,68,30.18,9.0,SSW,4.6,-,N/A,,Clear,210,2014-01-19 13:53:00
8:53 AM,32.0,17.1,54,30.15,10.0,SW,8.1,-,N/A,,Clear,230,2014-01-19 14:53:00
9:53 AM,45.0,15.1,30,30.14,10.0,SSW,17.3,-,N/A,,Clear,200,2014-01-19 15:53:00
10:53 AM,59.0,15.1,18,30.12,10.0,SW,16.1,-,N/A,,Clear,230,2014-01-19 16:53:00
11:53 AM,66.0,14.0,13,30.06,10.0,WSW,20.7,31.1,N/A,,Clear,240,2014-01-19 17:53:00
12:53 PM,69.1,12.9,11,30.00,10.0,WSW,24.2,32.2,N/A,,Clear,240,2014-01-19 18:53:00
1:53 PM,73.0,12.0,10,29.94,10.0,SW,25.3,31.1,N/A,,Clear,230,2014-01-19 19:53:00
2:53 PM,73.9,12.0,9,29.91,10.0,SW,19.6,31.1,N/A,,Clear,230,2014-01-19 20:53:00
3:53 PM,73.9,12.0,9,29.89,10.0,WSW,23.0,29.9,N/A,,Clear,240,2014-01-19 21:53:00
4:53 PM,71.1,10.9,10,29.90,10.0,WSW,16.1,21.9,N/A,,Clear,250,2014-01-19 22:53:00
5:53 PM,54.0,12.0,19,29.93,10.0,SW,8.1,-,N/A,,Clear,220,2014-01-19 23:53:00
6:53 PM,52.0,12.9,21,29.94,10.0,SW,5.8,-,N/A,,Clear,230,2014-01-20 00:53:00
7:53 PM,46.0,12.9,26,29.96,10.0,WNW,3.5,-,N/A,,Clear,300,2014-01-20 01:53:00
8:53 PM,44.1,12.9,28,29.94,10.0,Calm,Calm,-,N/A,,Clear,0,2014-01-20 02:53:00
9:53 PM,39.0,12.9,34,29.91,10.0,SSW,4.6,-,N/A,,Clear,200,2014-01-20 03:53:00
10:53 PM,36.0,12.9,39,29.89,10.0,WSW,5.8,-,N/A,,Clear,250,2014-01-20 04:53:00
11:53 PM,32.0,14.0,48,29.88,10.0,West,4.6,-,N/A,,Clear,270,2014-01-20 05:53:00